Regional Weather Roundup
Issued by NWS

Home | Current Version | Previous Version | Text Only | Print | Product List | Glossary Off
Versions: 1 2 3 4 5 6 7 8 9 10 11 12 13 14 15 16 17 18 19 20 21 22 23 24 25 26 27 28 29 30 31 32 33 34 35 36 37 38 39 40 41 42 43 44 45 46 47 48 49 50

364
ASUS43 KBIS 232310
RWRND

NORTH DAKOTA REGIONAL WEATHER ROUNDUP
NATIONAL WEATHER SERVICE BISMARCK ND
600 PM CDT FRI JUN 23 2017

NOTE: "FAIR" INDICATES FEW OR NO CLOUDS BELOW 12,000 FEET WITH NO
SIGNIFICANT WEATHER AND/OR OBSTRUCTIONS TO VISIBILITY.


NDZ001>003-009>011-017-240000-
NORTHWEST NORTH DAKOTA

CITY           SKY/WX    TMP DP  RH WIND       PRES   REMARKS
WILLISTON      PTSUNNY   67  31  26 NW16G30   30.12R
MINOT          PTSUNNY   62  34  35 NW30G38   30.05S
MINOT AFB      PTSUNNY   60  35  38 NW28G37   30.04R
$$

NDZ018>021-031>035-040>046-240000-
SOUTHWEST NORTH DAKOTA

CITY           SKY/WX    TMP DP  RH WIND       PRES   REMARKS
BISMARCK       MOSUNNY   68  35  29 NW22G31   30.06R
DICKINSON      MOSUNNY   64  26  23 NW18G31   30.10S
GARRISON         N/A     63  35  35 NW22G36   30.06R
HETTINGER ARPT SUNNY     67  28  23 NW28G37   30.13S
$$

NDZ004>008-012>016-024-026-027-054-240000-
NORTHEAST NORTH DAKOTA

CITY           SKY/WX    TMP DP  RH WIND       PRES   REMARKS
GRAND FORKS    PTSUNNY   64  42  44 NW16G30   29.91R
GRND FRKS AFB  PTSUNNY   63  41  45 N14G26    29.93R
DEVILS LAKE    CLOUDY    59  40  49 NW22      29.98R
$$

NDZ022-023-025-028>030-036>039-047>053-240000-
SOUTHEAST NORTH DAKOTA

CITY           SKY/WX    TMP DP  RH WIND       PRES   REMARKS
FARGO          CLOUDY    69  43  38 NW22G28   29.91S
JAMESTOWN      CLOUDY    63  38  39 NW25      29.98R
$$





USA.gov is the U.S. government's official web portal to all federal, state and local government web resources and services.